Thunderstorms From: 20-05-2018 15:00 Until: 21-05-2018 15:00 warning for: Thunderstorms Level: Yellow info button

Although rather usual in this region, locally or potentially dangerous phenomena are expected. (such as local winds, summer thunderstorms, rising streams or high waves) Be aware and pay attention to the latest weather updates, especially if you carry out activities exposed to weather or close to a stream or shoreline. 


Meteo18 Weather Cam more information Meteo18 Weather Cam


warning for Thunderstorms more information blitzortung!


Rain radar more information rain snow radar


Visit our other weather sites:

Template documentation
and downloads

And another site



Weather Underground History page Text

Daily Summary for May 2, 2017 Units:  English    Metric   Both
« Previous Day
Next Day »
Daily Weekly Monthly Yearly Custom
  High: Low: Average:
Temperature: TemperatureC °F 6.4 °F 9 °F
Dew Point: DewpointC °F 5.5 °F 6.7 °F
Humidity: Humidity % 70 % 86 %
Wind Speed: WindSpeedKMH mph 0.0 mph 4.8 mph
Wind Gust: WindSpeedGustKMH mph - -
Wind:- - SSE
Pressure: PressurehPa in 1014.1 in -
Precipitation: 7.9 in    
Historical Graphs
 
 
Tabular Data for May 2, 2017
Time Temperature Dew Point Pressure Wind Wind Speed Wind Gust Humidity Rainfall Rate (Hourly)
TemperatureC °F DewpointC °F PressurehPa in Calm     Humidity % HourlyPrecipMM in
00:02 8.2 °F 5.8 °F 1016.5 in SW 3.2 mph 6.4 mph 85 % 0.0 in
00:07 8.2 °F 5.8 °F 1016.1 in SSW 3.2 mph 6.4 mph 85 % 0.0 in
00:12 8.2 °F 5.8 °F 1016.1 in SSW 1.6 mph 6.4 mph 85 % 0.0 in
00:17 8.2 °F 5.8 °F 1016.1 in Calm   6.4 mph 85 % 0.0 in
00:22 8.1 °F 5.7 °F 1016.1 in Calm   6.4 mph 85 % 0.0 in
00:27 8.1 °F 5.9 °F 1016.1 in Calm   4.8 mph 86 % 0.0 in
00:32 8.0 °F 5.8 °F 1016.1 in Calm   3.2 mph 86 % 0.0 in
00:37 8.0 °F 5.8 °F 1016.1 in Calm   1.6 mph 86 % 0.0 in
00:42 8.0 °F 5.8 °F 1016.1 in Calm   1.6 mph 86 % 0.0 in
00:47 8.0 °F 6.0 °F 1016.1 in West 1.6 mph 1.6 mph 87 % 0.0 in
00:52 7.9 °F 5.9 °F 1016.1 in Calm   1.6 mph 87 % 0.0 in
01:02 8.0 °F 6.0 °F 1016.1 in Calm   1.6 mph 87 % 0.0 in
01:12 7.9 °F 5.9 °F 1016.1 in Calm   1.6 mph 87 % 0.0 in
01:17 7.9 °F 5.9 °F 1016.1 in Calm   1.6 mph 87 % 0.0 in
01:22 7.9 °F 5.9 °F 1016.1 in Calm     87 % 0.0 in
01:32 7.9 °F 6.2 °F 1016.1 in Calm   1.6 mph 89 % 0.3 in
01:37 7.8 °F 6.1 °F 1016.1 in South 4.8 mph 4.8 mph 89 % 0.3 in
01:42 7.8 °F 6.3 °F 1015.8 in Calm   6.4 mph 90 % 0.5 in
01:47 7.8 °F 6.3 °F 1015.8 in SSW 3.2 mph 6.4 mph 90 % 0.5 in
01:52 7.7 °F 6.2 °F 1015.8 in South 1.6 mph 8.0 mph 90 % 0.5 in
01:57 7.7 °F 6.3 °F 1015.8 in SW 1.6 mph 8.0 mph 91 % 0.5 in
02:02 7.7 °F 6.3 °F 1015.8 in SSW 1.6 mph 8.0 mph 91 % 0.8 in
02:07 7.6 °F 6.2 °F 1015.8 in Calm   4.8 mph 91 % 1.0 in
02:12 7.6 °F 6.4 °F 1015.8 in Calm   4.8 mph 92 % 1.0 in
02:17 7.6 °F 6.4 °F 1015.8 in Calm   4.8 mph 92 % 1.3 in
02:22 7.6 °F 6.4 °F 1015.5 in Calm   3.2 mph 92 % 1.3 in
02:27 7.6 °F 6.4 °F 1015.5 in Calm   1.6 mph 92 % 1.5 in
02:32 7.6 °F 6.4 °F 1015.5 in Calm   1.6 mph 92 % 1.3 in
02:37 7.5 °F 6.4 °F 1015.5 in Calm   1.6 mph 93 % 1.3 in
02:42 7.5 °F 6.4 °F 1015.5 in Calm   1.6 mph 93 % 1.3 in
02:47 7.6 °F 6.5 °F 1015.5 in Calm   1.6 mph 93 % 1.3 in
02:52 7.5 °F 6.4 °F 1015.1 in Calm   3.2 mph 93 % 1.0 in
02:57 7.4 °F 6.3 °F 1015.1 in Calm   3.2 mph 93 % 1.3 in
03:02 7.4 °F 6.3 °F 1015.1 in Calm   3.2 mph 93 % 1.0 in
03:07 7.4 °F 6.3 °F 1015.1 in Calm   1.6 mph 93 % 1.0 in
03:12 7.4 °F 6.5 °F 1015.1 in Calm   1.6 mph 94 % 1.0 in
03:17 7.4 °F 6.5 °F 1015.1 in Calm   1.6 mph 94 % 1.3 in
03:22 7.4 °F 6.5 °F 1015.1 in ESE 1.6 mph 4.8 mph 94 % 1.3 in
03:27 7.4 °F 6.5 °F 1015.1 in Calm   4.8 mph 94 % 1.5 in
03:32 7.4 °F 6.5 °F 1015.1 in East 1.6 mph 3.2 mph 94 % 1.5 in
03:37 7.4 °F 6.5 °F 1015.1 in Calm   3.2 mph 94 % 1.8 in
03:42 7.4 °F 6.5 °F 1014.8 in ESE 3.2 mph 6.4 mph 94 % 1.8 in
03:52 7.3 °F 6.4 °F 1014.8 in Calm   6.4 mph 94 % 2.0 in
03:57 7.3 °F 6.4 °F 1014.8 in East 1.6 mph 3.2 mph 94 % 2.0 in
04:02 7.3 °F 6.4 °F 1014.8 in East 3.2 mph 4.8 mph 94 % 2.0 in
04:07 7.2 °F 6.5 °F 1014.4 in East 3.2 mph 4.8 mph 95 % 2.3 in
04:12 7.2 °F 6.5 °F 1014.4 in ENE 3.2 mph 6.4 mph 95 % 2.0 in
04:17 7.2 °F 6.5 °F 1014.4 in ENE 3.2 mph 6.4 mph 95 % 2.0 in
04:22 7.2 °F 6.5 °F 1014.4 in Calm   9.7 mph 95 % 2.0 in
04:27 7.2 °F 6.5 °F 1014.4 in Calm   9.7 mph 95 % 1.8 in
04:32 7.2 °F 6.5 °F 1014.4 in East 3.2 mph 9.7 mph 95 % 1.5 in
04:37 7.2 °F 6.5 °F 1014.4 in ESE 3.2 mph 4.8 mph 95 % 1.5 in
04:42 7.2 °F 6.5 °F 1014.4 in Calm   3.2 mph 95 % 1.5 in
04:47 7.2 °F 6.5 °F 1014.4 in Calm   3.2 mph 95 % 1.5 in
04:52 7.1 °F 6.4 °F 1014.4 in East 4.8 mph 6.4 mph 95 % 1.5 in
04:57 7.1 °F 6.4 °F 1014.4 in ESE 3.2 mph 8.0 mph 95 % 1.3 in
05:02 7.1 °F 6.4 °F 1014.4 in ESE 3.2 mph 9.7 mph 95 % 1.5 in
05:07 7.1 °F 6.4 °F 1014.4 in East 3.2 mph 11.3 mph 95 % 1.3 in
05:12 7.1 °F 6.4 °F 1014.4 in ESE 3.2 mph 11.3 mph 95 % 1.0 in
05:17 7.1 °F 6.4 °F 1014.1 in ESE 1.6 mph 11.3 mph 95 % 1.3 in
05:22 7.1 °F 6.4 °F 1014.1 in East 4.8 mph 8.0 mph 95 % 1.0 in
05:27 7.1 °F 6.4 °F 1014.1 in ESE 1.6 mph 9.7 mph 95 % 1.0 in
05:32 7.0 °F 6.3 °F 1014.1 in East 3.2 mph 9.7 mph 95 % 0.8 in
05:37 6.9 °F 6.2 °F 1014.1 in ENE 9.7 mph 9.7 mph 95 % 0.8 in
05:42 6.9 °F 6.2 °F 1014.1 in ENE 4.8 mph 11.3 mph 95 % 0.8 in
05:47 6.9 °F 6.2 °F 1014.1 in NE 3.2 mph 11.3 mph 95 % 0.8 in
05:52 6.8 °F 6.1 °F 1014.1 in East 6.4 mph 11.3 mph 95 % 0.5 in
05:57 6.8 °F 6.1 °F 1014.1 in East 3.2 mph 11.3 mph 95 % 0.5 in
06:02 6.8 °F 6.1 °F 1014.1 in ENE 1.6 mph 8.0 mph 95 % 0.5 in
06:12 6.8 °F 6.1 °F 1014.1 in ENE 3.2 mph 8.0 mph 95 % 0.5 in
06:17 6.8 °F 6.1 °F 1014.1 in NNE 6.4 mph 8.0 mph 95 % 0.5 in
06:22 6.8 °F 6.1 °F 1014.1 in NE 6.4 mph 9.7 mph 95 % 0.5 in
06:27 6.8 °F 6.1 °F 1014.1 in NE 3.2 mph 11.3 mph 95 % 0.5 in
06:32 6.8 °F 6.1 °F 1014.1 in NNE 4.8 mph 11.3 mph 95 % 0.5 in
06:37 6.8 °F 6.1 °F 1014.1 in NE 6.4 mph 11.3 mph 95 % 0.5 in
06:42 6.8 °F 6.1 °F 1014.1 in NE 8.0 mph 11.3 mph 95 % 0.3 in
06:47 6.8 °F 6.1 °F 1014.1 in NE 11.3 mph 12.9 mph 95 % 0.3 in
06:52 6.7 °F 6.0 °F 1014.1 in NE 6.4 mph 14.5 mph 95 % 0.3 in
07:02 6.7 °F 6.0 °F 1014.1 in NE 9.7 mph 14.5 mph 95 % 0.3 in
07:12 6.7 °F 6.0 °F 1014.1 in North 8.0 mph 14.5 mph 95 % 0.0 in
07:17 6.7 °F 6.0 °F 1014.1 in NNE 11.3 mph 16.1 mph 95 % 0.0 in
07:22 6.7 °F 6.0 °F 1014.1 in NE 12.9 mph 17.7 mph 95 % 0.0 in
07:27 6.7 °F 6.0 °F 1014.1 in NE 4.8 mph 17.7 mph 95 % 0.0 in
07:32 6.7 °F 6.0 °F 1014.1 in ENE 4.8 mph 17.7 mph 95 % 0.3 in
07:37 6.7 °F 5.8 °F 1014.1 in NE 9.7 mph 17.7 mph 94 % 0.3 in
07:42 6.7 °F 5.8 °F 1014.1 in NE 8.0 mph 17.7 mph 94 % 0.3 in
07:47 6.7 °F 5.8 °F 1014.1 in NE 6.4 mph 17.7 mph 94 % 0.3 in
07:52 6.6 °F 5.7 °F 1014.1 in ENE 11.3 mph 17.7 mph 94 % 0.3 in
07:57 6.6 °F 5.7 °F 1014.1 in NNE 8.0 mph 17.7 mph 94 % 0.3 in
08:02 6.6 °F 5.7 °F 1014.1 in NE 9.7 mph 19.3 mph 94 % 0.5 in
08:12 6.5 °F 5.6 °F 1014.1 in ENE 8.0 mph 17.7 mph 94 % 0.5 in
08:17 6.4 °F 5.5 °F 1014.4 in NE 8.0 mph 22.5 mph 94 % 0.5 in
08:22 6.4 °F 5.5 °F 1014.4 in ENE 11.3 mph 22.5 mph 94 % 0.5 in
08:27 6.4 °F 5.5 °F 1014.4 in NE 11.3 mph 25.7 mph 94 % 0.5 in
08:32 6.4 °F 5.5 °F 1014.4 in NE 16.1 mph 25.7 mph 94 % 0.5 in
08:37 6.4 °F 5.5 °F 1014.4 in North 19.3 mph 25.7 mph 94 % 0.5 in
08:42 6.4 °F 5.5 °F 1014.4 in NE 4.8 mph 19.3 mph 94 % 0.5 in
08:47 6.4 °F 5.5 °F 1014.4 in North 11.3 mph 19.3 mph 94 % 0.5 in
08:57 6.4 °F 5.7 °F 1014.4 in NNE 12.9 mph 22.5 mph 95 % 0.5 in
09:02 6.4 °F 5.7 °F 1014.4 in NNE 12.9 mph 25.7 mph 95 % 0.5 in
09:12 6.6 °F 5.9 °F 1014.4 in NE 9.7 mph 25.7 mph 95 % 0.5 in
09:17 6.6 °F 5.9 °F 1014.8 in NNE 14.5 mph 25.7 mph 95 % 0.8 in
09:22 6.7 °F 6.0 °F 1014.8 in NNE 9.7 mph 25.7 mph 95 % 0.5 in
09:32 6.8 °F 6.1 °F 1014.8 in NNE 11.3 mph 24.1 mph 95 % 0.5 in
09:42 6.9 °F 6.2 °F 1014.8 in NNE 16.1 mph 20.9 mph 95 % 0.5 in
09:47 6.9 °F 6.0 °F 1014.8 in NNE 9.7 mph 20.9 mph 94 % 0.5 in
09:52 6.9 °F 6.0 °F 1014.8 in ENE 11.3 mph 22.5 mph 94 % 0.5 in
09:57 7.0 °F 6.1 °F 1014.8 in NNE 12.9 mph 22.5 mph 94 % 0.5 in
10:02 7.1 °F 6.2 °F 1015.1 in ENE 3.2 mph 20.9 mph 94 % 0.5 in
10:07 7.2 °F 6.3 °F 1015.1 in North 4.8 mph 20.9 mph 94 % 0.5 in
10:12 7.2 °F 6.3 °F 1015.1 in NE 6.4 mph 20.9 mph 94 % 0.5 in
10:17 7.3 °F 6.4 °F 1015.1 in NE 11.3 mph 19.3 mph 94 % 0.3 in
10:22 7.4 °F 6.5 °F 1015.1 in North 8.0 mph 17.7 mph 94 % 0.3 in
10:32 7.5 °F 6.4 °F 1015.1 in NE 6.4 mph 20.9 mph 93 % 0.3 in
10:37 7.7 °F 6.6 °F 1015.1 in North 9.7 mph 20.9 mph 93 % 0.3 in
10:42 7.7 °F 6.5 °F 1015.5 in NNE 8.0 mph 20.9 mph 92 % 0.0 in
10:47 7.8 °F 6.4 °F 1015.5 in NNE 11.3 mph 14.5 mph 91 % 0.0 in
10:52 7.7 °F 6.2 °F 1015.5 in NNE 8.0 mph 19.3 mph 90 % 0.0 in
10:57 7.7 °F 6.0 °F 1015.5 in NE 6.4 mph 20.9 mph 89 % 0.0 in
11:02 7.8 °F 6.1 °F 1015.5 in NNE 12.9 mph 20.9 mph 89 % 0.0 in
11:07 7.8 °F 6.1 °F 1015.5 in NNE 6.4 mph 20.9 mph 89 % 0.0 in
11:12 7.8 °F 6.3 °F 1015.5 in ENE 1.6 mph 16.1 mph 90 % 0.0 in
11:17 7.8 °F 6.3 °F 1015.5 in NNW 1.6 mph 16.1 mph 90 % 0.0 in
11:22 7.9 °F 6.4 °F 1015.5 in NNW 1.6 mph 16.1 mph 90 % 0.0 in
11:27 7.8 °F 6.3 °F 1015.5 in NE 1.6 mph 16.1 mph 90 % 0.0 in
11:32 7.9 °F 6.4 °F 1015.5 in North 11.3 mph 11.3 mph 90 % 0.0 in
11:42 7.9 °F 6.5 °F 1015.8 in NNE 1.6 mph 14.5 mph 91 % 0.0 in
11:47 8.0 °F 6.6 °F 1015.8 in NW 6.4 mph 14.5 mph 91 % 0.0 in
11:52 8.1 °F 6.7 °F 1015.8 in NNE 3.2 mph 14.5 mph 91 % 0.0 in
12:02 8.3 °F 6.9 °F 1015.8 in ENE 1.6 mph 14.5 mph 91 % 0.0 in
12:07 8.4 °F 7.0 °F 1015.8 in NE 9.7 mph 14.5 mph 91 % 0.0 in
12:12 8.6 °F 6.9 °F 1016.1 in NE 14.5 mph 14.5 mph 89 % 0.0 in
12:17 9.0 °F 7.3 °F 1016.1 in ENE 8.0 mph 19.3 mph 89 % 0.0 in
12:22 9.4 °F 7.5 °F 1016.1 in NE 4.8 mph 19.3 mph 88 % 0.0 in
12:27 9.5 °F 7.4 °F 1016.1 in Calm   19.3 mph 87 % 0.0 in
12:32 9.7 °F 7.5 °F 1016.1 in ENE 8.0 mph 14.5 mph 86 % 0.0 in
12:42 9.8 °F 7.2 °F 1016.1 in ENE 9.7 mph 22.5 mph 84 % 0.0 in
12:47 9.9 °F 7.3 °F 1016.1 in NNE 8.0 mph 22.5 mph 84 % 0.0 in
12:57 10.1 °F 7.5 °F 1016.1 in NE 4.8 mph 19.3 mph 84 % 0.0 in
13:02 10.2 °F 7.4 °F 1016.1 in NNE 11.3 mph 19.3 mph 83 % 0.0 in
13:12 10.2 °F 7.3 °F 1016.1 in NE 9.7 mph 24.1 mph 82 % 0.0 in
13:17 9.9 °F 6.6 °F 1016.1 in NNE 14.5 mph 24.1 mph 80 % 0.0 in
13:22 9.9 °F 6.8 °F 1016.1 in NNE 9.7 mph 24.1 mph 81 % 0.0 in
13:27 10.1 °F 7.2 °F 1016.5 in NNE 6.4 mph 24.1 mph 82 % 0.0 in
13:32 10.3 °F 7.2 °F 1016.1 in NNE 12.9 mph 24.1 mph 81 % 0.0 in
13:37 10.3 °F 6.8 °F 1016.5 in NNE 11.3 mph 24.1 mph 79 % 0.0 in
13:42 10.4 °F 7.3 °F 1016.5 in ENE 6.4 mph 20.9 mph 81 % 0.0 in
13:47 10.8 °F 7.7 °F 1016.5 in NE 3.2 mph 20.9 mph 81 % 0.0 in
13:52 10.9 °F 7.8 °F 1016.5 in ENE 8.0 mph 19.3 mph 81 % 0.0 in
13:57 10.8 °F 7.7 °F 1016.5 in NE 8.0 mph 11.3 mph 81 % 0.0 in
14:02 11.0 °F 7.7 °F 1016.5 in ENE 4.8 mph 12.9 mph 80 % 0.0 in
14:07 11.3 °F 7.8 °F 1016.5 in ENE 6.4 mph 12.9 mph 79 % 0.0 in
14:12 11.4 °F 7.5 °F 1016.5 in ENE 3.2 mph 14.5 mph 77 % 0.0 in
14:17 11.4 °F 7.7 °F 1016.5 in ENE 4.8 mph 14.5 mph 78 % 0.0 in
14:22 11.3 °F 7.4 °F 1016.5 in ENE 6.4 mph 14.5 mph 77 % 0.0 in
14:27 11.1 °F 7.4 °F 1016.5 in NE 3.2 mph 8.0 mph 78 % 0.0 in
14:32 10.9 °F 7.8 °F 1016.5 in NE 4.8 mph 8.0 mph 81 % 0.0 in
14:37 10.9 °F 7.9 °F 1016.8 in North 1.6 mph 8.0 mph 82 % 0.0 in
14:42 10.9 °F 8.1 °F 1016.8 in NNE 3.2 mph 8.0 mph 83 % 0.3 in
14:47 11.3 °F 8.5 °F 1016.8 in North 9.7 mph 9.7 mph 83 % 0.3 in
14:52 11.3 °F 8.2 °F 1016.8 in NNW 4.8 mph 14.5 mph 81 % 0.3 in
14:57 11.3 °F 7.8 °F 1016.8 in NNE 4.8 mph 14.5 mph 79 % 0.3 in
15:02 11.6 °F 7.9 °F 1016.8 in NNE 1.6 mph 14.5 mph 78 % 0.3 in
15:12 12.1 °F 7.4 °F 1016.8 in North 3.2 mph 12.9 mph 73 % 0.3 in
15:17 12.4 °F 7.9 °F 1016.8 in WNW 8.0 mph 14.5 mph 74 % 0.3 in
15:22 12.4 °F 7.9 °F 1017.2 in North 9.7 mph 16.1 mph 74 % 0.3 in
15:27 12.2 °F 7.1 °F 1016.8 in NNE 4.8 mph 16.1 mph 71 % 0.3 in
15:32 12.2 °F 7.1 °F 1017.2 in North 14.5 mph 17.7 mph 71 % 0.3 in
15:37 12.1 °F 7.4 °F 1017.2 in NNE 8.0 mph 17.7 mph 73 % 0.3 in
15:42 11.7 °F 7.4 °F 1017.2 in NE 11.3 mph 17.7 mph 75 % 0.0 in
15:47 11.1 °F 7.8 °F 1017.2 in ENE 11.3 mph 22.5 mph 80 % 0.0 in
15:57 11.1 °F 8.7 °F 1017.2 in ESE 1.6 mph 22.5 mph 85 % 0.0 in
16:02 11.3 °F 7.6 °F 1017.2 in NNW 4.8 mph 12.9 mph 78 % 0.0 in
16:07 11.6 °F 7.9 °F 1017.2 in NNE 4.8 mph 8.0 mph 78 % 0.0 in
16:12 11.7 °F 7.6 °F 1017.5 in North 8.0 mph 11.3 mph 76 % 0.0 in
16:17 11.7 °F 7.2 °F 1017.5 in North 9.7 mph 16.1 mph 74 % 0.0 in
16:22 12.0 °F 7.9 °F 1017.5 in WNW 1.6 mph 16.1 mph 76 % 0.0 in
16:32 12.3 °F 7.6 °F 1017.5 in NNE 8.0 mph 16.1 mph 73 % 0.0 in
16:37 12.4 °F 7.5 °F 1017.5 in NNE 9.7 mph 14.5 mph 72 % 0.0 in
16:42 12.3 °F 7.6 °F 1017.5 in NNW 3.2 mph 11.3 mph 73 % 0.0 in
16:47 12.3 °F 7.8 °F 1017.8 in NNW 6.4 mph 11.3 mph 74 % 0.0 in
16:52 12.0 °F 7.3 °F 1017.8 in NNW 6.4 mph 12.9 mph 73 % 0.0 in
16:57 11.6 °F 7.3 °F 1017.8 in NNE 22.5 mph 22.5 mph 75 % 0.0 in
17:02 11.1 °F 6.2 °F 1018.2 in NW 11.3 mph 30.6 mph 72 % 0.0 in
17:07 10.7 °F 6.6 °F 1018.2 in ENE 4.8 mph 30.6 mph 76 % 0.0 in
17:12 10.3 °F 6.6 °F 1018.2 in NE 8.0 mph 30.6 mph 78 % 0.3 in
17:17 10.1 °F 6.8 °F 1018.2 in NE 4.8 mph 22.5 mph 80 % 0.3 in
17:22 10.2 °F 7.1 °F 1017.8 in NNW 3.2 mph 16.1 mph 81 % 0.3 in
17:27 10.3 °F 6.8 °F 1017.8 in NW 3.2 mph 16.1 mph 79 % 0.3 in
17:32 10.4 °F 6.7 °F 1017.8 in WNW 1.6 mph 9.7 mph 78 % 0.3 in
17:37 10.8 °F 7.3 °F 1017.8 in NW 6.4 mph 8.0 mph 79 % 0.3 in
17:42 10.9 °F 7.0 °F 1017.8 in NW 3.2 mph 8.0 mph 77 % 0.3 in
17:47 11.1 °F 7.4 °F 1017.8 in WNW 8.0 mph 8.0 mph 78 % 0.3 in
17:52 11.2 °F 7.3 °F 1018.2 in WNW 4.8 mph 8.0 mph 77 % 0.3 in
17:57 11.3 °F 7.0 °F 1017.8 in WNW 4.8 mph 8.0 mph 75 % 0.3 in
18:02 11.4 °F 7.3 °F 1017.8 in NW 4.8 mph 8.0 mph 76 % 0.3 in
18:07 11.4 °F 7.5 °F 1017.8 in NW 6.4 mph 8.0 mph 77 % 0.3 in
18:12 11.3 °F 7.6 °F 1017.8 in Calm   9.7 mph 78 % 0.0 in
18:22 11.4 °F 8.1 °F 1017.8 in WSW 3.2 mph 9.7 mph 80 % 0.0 in
18:32 11.4 °F 7.9 °F 1018.2 in WNW 3.2 mph 9.7 mph 79 % 0.0 in
18:42 11.8 °F 8.1 °F 1018.2 in WNW 3.2 mph 9.7 mph 78 % 0.0 in
18:47 12.1 °F 7.8 °F 1018.2 in WSW 3.2 mph 9.7 mph 75 % 0.0 in
18:57 12.5 °F 7.4 °F 1018.2 in WNW 1.6 mph 6.4 mph 71 % 0.0 in
19:02 12.3 °F 7.0 °F 1018.2 in NW 3.2 mph 9.7 mph 70 % 0.0 in
19:07 12.1 °F 7.0 °F 1018.2 in West 3.2 mph 9.7 mph 71 % 0.0 in
19:12 12.0 °F 7.1 °F 1018.2 in WSW 4.8 mph 9.7 mph 72 % 0.0 in
19:17 11.9 °F 7.0 °F 1018.2 in West 1.6 mph 6.4 mph 72 % 0.0 in
19:22 11.8 °F 7.3 °F 1018.2 in WNW 6.4 mph 8.0 mph 74 % 0.0 in
19:27 11.7 °F 7.4 °F 1018.5 in West 1.6 mph 8.0 mph 75 % 0.0 in
19:32 11.6 °F 7.3 °F 1018.5 in WNW 6.4 mph 8.0 mph 75 % 0.0 in
19:37 11.5 °F 7.6 °F 1018.5 in WNW 8.0 mph 8.0 mph 77 % 0.0 in
19:42 11.6 °F 7.9 °F 1018.5 in WSW 3.2 mph 8.0 mph 78 % 0.0 in
19:47 11.6 °F 8.1 °F 1018.2 in West 4.8 mph 8.0 mph 79 % 0.0 in
19:52 11.6 °F 7.9 °F 1018.5 in WNW 4.8 mph 8.0 mph 78 % 0.0 in
19:57 11.4 °F 7.7 °F 1018.5 in West 3.2 mph 9.7 mph 78 % 0.0 in
20:02 11.3 °F 7.6 °F 1018.5 in Calm   9.7 mph 78 % 0.0 in
20:07 11.1 °F 7.4 °F 1018.5 in West 9.7 mph 11.3 mph 78 % 0.0 in
20:12 11.0 °F 7.3 °F 1018.5 in WNW 1.6 mph 14.5 mph 78 % 0.0 in
20:17 10.8 °F 7.1 °F 1018.2 in West 3.2 mph 14.5 mph 78 % 0.0 in
20:22 10.7 °F 7.0 °F 1018.5 in NW 3.2 mph 14.5 mph 78 % 0.0 in
20:27 10.5 °F 7.0 °F 1018.5 in WNW 4.8 mph 8.0 mph 79 % 0.0 in
20:37 10.4 °F 6.7 °F 1018.5 in WNW 1.6 mph 6.4 mph 78 % 0.0 in
20:42 10.2 °F 6.7 °F 1018.5 in Calm   4.8 mph 79 % 0.0 in
20:47 10.1 °F 6.6 °F 1018.5 in West 1.6 mph 4.8 mph 79 % 0.0 in
20:52 10.2 °F 6.7 °F 1018.8 in Calm   4.8 mph 79 % 0.0 in
20:57 10.1 °F 6.6 °F 1018.8 in Calm   6.4 mph 79 % 0.0 in
21:02 9.9 °F 6.4 °F 1018.8 in Calm   6.4 mph 79 % 0.0 in
21:07 9.8 °F 6.5 °F 1018.8 in Calm   3.2 mph 80 % 0.0 in
21:12 9.7 °F 6.6 °F 1018.8 in NW 3.2 mph 4.8 mph 81 % 0.0 in
21:17 9.7 °F 6.8 °F 1018.8 in West 4.8 mph 6.4 mph 82 % 0.0 in
21:22 9.6 °F 6.7 °F 1018.8 in WNW 1.6 mph 9.7 mph 82 % 0.0 in
21:27 9.6 °F 6.9 °F 1018.8 in WNW 1.6 mph 9.7 mph 83 % 0.0 in
21:32 9.5 °F 6.9 °F 1019.2 in WNW 1.6 mph 6.4 mph 84 % 0.0 in
21:37 9.4 °F 6.8 °F 1019.2 in West 1.6 mph 6.4 mph 84 % 0.0 in
21:42 9.5 °F 6.8 °F 1019.2 in West 6.4 mph 9.7 mph 83 % 0.0 in
21:47 9.7 °F 6.8 °F 1019.2 in WNW 3.2 mph 9.7 mph 82 % 0.0 in
21:52 9.7 °F 6.6 °F 1019.2 in West 3.2 mph 9.7 mph 81 % 0.0 in
21:57 9.8 °F 6.5 °F 1019.2 in WNW 9.7 mph 9.7 mph 80 % 0.0 in
22:02 9.9 °F 6.6 °F 1019.2 in West 6.4 mph 9.7 mph 80 % 0.0 in
22:07 9.9 °F 6.6 °F 1019.2 in SW 3.2 mph 9.7 mph 80 % 0.0 in
22:12 9.8 °F 6.7 °F 1019.5 in Calm   9.7 mph 81 % 0.0 in
22:17 9.8 °F 6.7 °F 1019.5 in West 3.2 mph 9.7 mph 81 % 0.0 in
22:27 9.8 °F 6.7 °F 1019.2 in West 1.6 mph 8.0 mph 81 % 0.0 in
22:32 9.8 °F 6.7 °F 1019.2 in Calm   8.0 mph 81 % 0.0 in
22:37 9.8 °F 6.7 °F 1019.2 in WNW 1.6 mph 6.4 mph 81 % 0.0 in
22:42 9.8 °F 6.7 °F 1019.2 in West 1.6 mph 4.8 mph 81 % 0.0 in
22:47 9.8 °F 6.7 °F 1019.2 in Calm   4.8 mph 81 % 0.0 in
22:52 9.8 °F 6.9 °F 1019.5 in Calm   4.8 mph 82 % 0.0 in
22:57 9.7 °F 6.8 °F 1019.5 in WNW 1.6 mph 4.8 mph 82 % 0.0 in
23:02 9.7 °F 6.8 °F 1019.5 in Calm   3.2 mph 82 % 0.0 in
23:07 9.7 °F 7.0 °F 1019.5 in WNW 4.8 mph 4.8 mph 83 % 0.0 in
23:12 9.6 °F 6.9 °F 1019.5 in West 1.6 mph 4.8 mph 83 % 0.0 in
23:17 9.6 °F 6.9 °F 1019.5 in WNW 4.8 mph 4.8 mph 83 % 0.0 in
23:22 9.6 °F 6.9 °F 1019.5 in WNW 1.6 mph 8.0 mph 83 % 0.0 in
23:27 9.6 °F 6.9 °F 1019.5 in WSW 1.6 mph 8.0 mph 83 % 0.0 in
23:32 9.6 °F 6.9 °F 1019.5 in West 3.2 mph 8.0 mph 83 % 0.0 in
23:37 9.6 °F 7.0 °F 1019.5 in Calm   8.0 mph 84 % 0.0 in
23:42 9.5 °F 6.9 °F 1019.5 in West 1.6 mph 8.0 mph 84 % 0.0 in
23:47 9.5 °F 6.9 °F 1019.5 in West 4.8 mph 4.8 mph 84 % 0.0 in
23:52 9.6 °F 7.0 °F 1019.5 in West 3.2 mph 4.8 mph 84 % 0.0 in
23:57 9.6 °F 7.0 °F 1019.5 in West 1.6 mph 4.8 mph 84 % 0.0 in
Meteo18
Compliments of Weather Underground - 4 mb

Script developed by  Jim McMurry - jmcmurry@mwt.net Adapted for the template by  Wim van der Kuil - Leuven-Template.eu

You find our weather info also at:

European Weather Network

Weather Underground

Equipment we use:

Weather-station
Davis Vue

Weather-program
Meteobridge

Weather-server
Raspberry PI 2 B+

Provider
1 and 1

Davis Vue

Meteobridge

Raspberry PI 2 B+

1 and 1